W0KHZ Weather Reports


Display with metric or nautical units.
time (UTC)temp
F
wind
direction
speed
MPH
gust
MPH
rain 1hr
in
rain 24hr
in
rain mn
in
humidity
%
barometer
mb
20260905023528 75 0.0 0.0 0.00 0.03 0.03 88 1041.6
20260905023025 75 0.0 0.0 0.00 0.03 0.03 87 1041.6
20260905022523 75 0.0 0.0 0.00 0.03 0.03 87 1041.6
20260905022020 76 0.0 0.0 0.00 0.03 0.03 87 1041.4
20260905021536 76 0.0 0.0 0.00 0.03 0.03 87 1041.4
20260905021213 76 0.0 0.0 0.00 0.03 0.03 86 1041.4
20260905020530 76 0.0 0.0 0.00 0.03 0.03 86 1041.5
20260905020027 76 0.0 0.0 0.00 0.03 0.03 86 1041.4
20260905015524 76 0.0 0.0 0.00 0.03 0.03 85 1041.4
20260905015021 76 0.0 0.0 0.00 0.03 0.03 85 1041.4
20260905014538 77 0.0 0.0 0.00 0.03 0.03 85 1041.3
20260905014034 77 0.0 0.0 0.00 0.03 0.03 85 1041.2
20260905013531 77 0.0 0.0 0.00 0.03 0.03 85 1041.2
20260905013029 77 0.0 0.0 0.00 0.03 0.03 84 1041.1
20260905012525 78 0.0 0.0 0.00 0.03 0.03 84 1041.2
20260905012023 78 0.0 0.0 0.00 0.03 0.03 84 1041.1
20260905011520 79 0.0 0.0 0.00 0.03 0.03 84 1041.0
20260905011016 79 0.0 0.0 0.00 0.03 0.03 82 1040.9
20260905010533 79 0.0 0.0 0.00 0.03 0.03 82 1040.9
20260905010030 80 0.0 0.0 0.00 0.03 0.03 81 1040.9
20260905005528 80 0.0 0.0 0.00 0.03 0.03 80 1040.9
20260905005025 81 0.0 0.0 0.00 0.03 0.03 80 1040.8
20260905004522 81 300 0.0 1.0 0.00 0.03 0.03 79 1040.8
20260905004019 82 0.0 0.0 0.00 0.03 0.03 78 1040.8
20260905003535 82 0.0 0.0 0.00 0.03 0.03 78 1040.6
20260905003032 82 300 0.0 1.0 0.00 0.03 0.03 78 1040.6
20260905002529 82 0.0 0.0 0.00 0.03 0.03 77 1040.5
20260905002046 83 0.0 0.0 0.00 0.03 0.03 77 1040.5
20260905001543 83 0.0 0.0 0.00 0.03 0.03 77 1040.5
20260905001020 83 0.0 0.0 0.00 0.03 0.03 76 1040.4
20260905000537 83 301 0.0 1.0 0.00 0.03 0.03 76 1040.4
20260905000033 84 0.0 0.0 0.00 0.03 0.03 75 1040.2
20260904235530 84 300 0.0 1.0 0.00 0.03 0.03 75 1040.3
20260904235027 84 301 0.0 1.0 0.00 0.03 0.03 75 1040.4
20260904234524 84 301 0.0 1.0 0.00 0.03 0.03 75 1040.4
20260904234022 84 313 0.0 1.0 0.00 0.03 0.03 75 1040.5
20260904233519 84 2 0.0 1.0 0.00 0.03 0.03 74 1040.5
20260904233035 85 1 1.0 4.0 0.00 0.03 0.03 74 1040.4
20260904232552 84 164 0.0 2.0 0.00 0.03 0.03 74 1040.5
20260904232028 85 164 0.0 1.0 0.00 0.03 0.03 74 1040.5
20260904231526 85 164 0.0 1.0 0.00 0.03 0.03 74 1040.6
20260904231022 85 164 0.0 1.0 0.00 0.03 0.03 74 1040.5
20260904230520 84 164 0.0 1.0 0.00 0.03 0.03 73 1040.5
20260904230016 85 160 1.0 3.0 0.00 0.03 0.03 74 1040.7
20260904225533 85 136 1.0 3.0 0.00 0.03 0.03 74 1040.6
20260904225030 85 136 0.0 1.0 0.00 0.03 0.03 74 1040.6
20260904224528 85 136 0.0 1.0 0.00 0.03 0.03 73 1040.6
20260904224024 85 136 0.0 2.0 0.00 0.03 0.03 73 1040.6
20260904223522 85 136 0.0 2.0 0.00 0.03 0.03 73 1040.6
20260904223019 85 136 1.0 2.0 0.00 0.03 0.03 73 1040.7
20260904222534 86 136 0.0 1.0 0.00 0.03 0.03 72 1040.7
20260904222031 86 136 0.0 1.0 0.00 0.03 0.03 72 1040.7
20260904221549 86 136 0.0 1.0 0.00 0.03 0.03 72 1040.6
20260904221026 86 131 0.0 1.0 0.00 0.03 0.03 72 1040.4
20260904220523 86 130 0.0 2.0 0.00 0.03 0.03 72 1040.2
20260904220020 86 126 1.0 2.0 0.00 0.03 0.03 71 1040.1
20260904215517 86 124 1.0 2.0 0.00 0.03 0.03 71 1040.1
20260904215034 87 124 1.0 1.0 0.00 0.03 0.03 71 1040.1
20260904214530 87 124 1.0 2.0 0.00 0.03 0.03 71 1040.2
20260904214027 87 124 1.0 3.0 0.00 0.03 0.03 71 1040.2
20260904213545 87 124 1.0 2.0 0.00 0.03 0.03 70 1040.4
20260904213042 87 112 1.0 2.0 0.00 0.03 0.03 71 1040.6
20260904212519 87 112 1.0 2.0 0.00 0.03 0.03 71 1040.7
20260904212035 87 107 1.0 2.0 0.00 0.03 0.03 72 1040.6
20260904211532 87 88 1.0 1.0 0.00 0.03 0.03 73 1040.4
20260904211029 87 88 1.0 2.0 0.00 0.03 0.03 72 1040.4
20260904210526 87 79 1.0 2.0 0.00 0.03 0.03 72 1040.4
20260904210023 87 156 1.0 3.0 0.00 0.03 0.03 72 1040.3
20260904205520 88 187 1.0 2.0 0.00 0.03 0.03 72 1040.3
20260904205018 88 126 1.0 4.0 0.00 0.03 0.03 74 1040.3
20260904204554 87 130 1.0 4.0 0.00 0.03 0.03 74 1040.3
20260904204031 87 116 1.0 2.0 0.00 0.03 0.03 74 1040.4
20260904203528 88 116 1.0 2.0 0.00 0.03 0.03 74 1040.3
20260904203025 88 116 1.0 2.0 0.00 0.03 0.03 73 1040.3
20260904202542 88 149 1.0 3.0 0.00 0.03 0.03 74 1040.3
20260904202019 88 166 1.0 3.0 0.00 0.03 0.03 74 1040.2
20260904201535 87 166 1.0 4.0 0.00 0.03 0.03 74 1040.2
20260904201032 87 138 2.0 4.0 0.00 0.03 0.03 74 1040.2
20260904200529 86 144 2.0 4.0 0.00 0.03 0.03 75 1040.2
20260904200026 86 153 2.0 4.0 0.00 0.03 0.03 75 1040.0
20260904195523 85 153 2.0 4.0 0.00 0.03 0.03 75 1039.9
20260904195100 85 99 0.0 2.0 0.00 0.03 0.03 75 1040.0
20260904194516 85 99 0.0 2.0 0.00 0.03 0.03 74 1040.2
20260904194033 86 81 1.0 3.0 0.00 0.03 0.03 74 1040.5
20260904193530 86 149 1.0 4.0 0.00 0.03 0.03 74 1040.4
20260904193027 87 150 1.0 2.0 0.00 0.03 0.03 73 1040.4
20260904192524 87 147 2.0 3.0 0.00 0.03 0.03 73 1040.4
20260904192021 87 135 1.0 3.0 0.00 0.03 0.03 72 1040.3
20260904191519 87 102 1.0 2.0 0.00 0.03 0.03 72 1040.4
20260904191035 87 147 2.0 4.0 0.00 0.03 0.03 73 1040.2
20260904190532 87 147 1.0 2.0 0.00 0.03 0.03 73 1040.3
20260904190049 86 153 2.0 3.0 0.00 0.03 0.03 75 1040.2
20260904185526 86 150 1.0 4.0 0.00 0.03 0.03 76 1040.2
20260904185023 85 155 1.0 3.0 0.00 0.03 0.03 77 1040.4
20260904184521 85 155 2.0 4.0 0.00 0.03 0.03 77 1040.5
20260904184017 85 121 1.0 3.0 0.00 0.03 0.03 77 1040.7
20260904183533 85 116 1.0 2.0 0.00 0.03 0.03 77 1040.7
20260904183030 85 125 2.0 6.0 0.00 0.03 0.03 78 1040.7
20260904182527 85 172 2.0 6.0 0.00 0.03 0.03 79 1040.6
20260904182025 84 155 2.0 4.0 0.00 0.03 0.03 80 1040.6
20260904181522 83 172 2.0 6.0 0.00 0.03 0.03 80 1040.6
20260904181039 83 143 1.0 3.0 0.00 0.03 0.03 82 1040.6
20260904180535 82 155 2.0 4.0 0.00 0.03 0.03 82 1040.5
20260904180032 81 163 1.0 3.0 0.00 0.03 0.03 83 1040.5
20260904175529 81 163 1.0 3.0 0.00 0.03 0.03 83 1040.7
20260904175027 81 163 0.0 1.0 0.00 0.03 0.03 83 1040.6
20260904174523 80 163 0.0 3.0 0.00 0.03 0.03 83 1040.4
20260904174020 80 163 0.0 2.0 0.00 0.03 0.03 84 1040.4
20260904173518 80 163 0.0 1.0 0.00 0.03 0.03 84 1040.5
20260904173034 80 164 1.0 1.0 0.00 0.03 0.03 83 1040.6
20260904172531 80 164 0.0 2.0 0.00 0.03 0.03 83 1040.6
20260904172028 80 164 0.0 2.0 0.00 0.03 0.03 83 1040.7
20260904171525 80 164 0.0 3.0 0.00 0.03 0.03 83 1041.0
20260904171021 80 0.0 0.0 0.00 0.03 0.03 82 1040.7
20260904170518 80 0.0 0.0 0.00 0.03 0.03 83 1040.6
20260904170033 80 0.0 0.0 0.00 0.03 0.03 83 1040.7
20260904165551 81 0.0 0.0 0.00 0.03 0.03 82 1040.7
20260904165028 81 0.0 0.0 0.00 0.03 0.03 82 1040.6
20260904164525 81 0.0 0.0 0.00 0.03 0.03 82 1040.7
20260904164021 82 0.0 0.0 0.00 0.03 0.03 81 1040.8
20260904163519 82 0.0 0.0 0.00 0.03 0.03 82 1040.6
20260904163055 82 0.0 0.0 0.00 0.03 0.03 81 1040.4
20260904162532 82 0.0 0.0 0.00 0.03 0.03 82 1040.7
20260904162029 82 0.0 0.0 0.00 0.03 0.03 81 1040.9
20260904161527 82 0.0 0.0 0.00 0.03 0.03 81 1040.7
20260904161024 82 0.0 0.0 0.00 0.04 0.03 80 1040.3
20260904160521 83 0.0 0.0 0.00 0.04 0.03 80 1040.4
20260904160019 83 0.0 0.0 0.00 0.04 0.03 80 1040.5
20260904155535 84 0.0 0.0 0.00 0.04 0.03 79 1040.5
20260904155032 84 0.0 0.0 0.00 0.05 0.03 81 1040.6
20260904154529 83 0.0 0.0 0.00 0.05 0.03 81 1040.5
20260904154127 83 0.0 0.0 0.00 0.06 0.03 82 1040.4
20260904153523 83 0.0 0.0 0.00 0.07 0.03 83 1040.4
20260904153020 82 0.0 0.0 0.00 0.07 0.03 83 1040.4
20260904152537 82 0.0 0.0 0.00 0.07 0.03 83 1040.6
20260904152033 82 0.0 0.0 0.00 0.08 0.03 84 1040.5
20260904151530 81 0.0 0.0 0.00 0.08 0.03 85 1040.6
20260904151108 81 0.0 0.0 0.00 0.08 0.03 86 1040.6
20260904150525 81 0.0 0.0 0.00 0.09 0.03 86 1040.5
20260904150022 80 0.0 0.0 0.00 0.09 0.03 87 1040.4
20260904145519 80 0.0 0.0 0.00 0.09 0.03 88 1040.4
20260904145055 79 0.0 0.0 0.00 0.09 0.03 89 1040.5
20260904144532 78 163 0.0 1.0 0.00 0.09 0.03 89 1040.6
20260904144028 78 0.0 0.0 0.00 0.09 0.03 89 1040.5
20260904143525 77 0.0 0.0 0.00 0.09 0.03 89 1040.4
20260904143043 77 0.0 0.0 0.00 0.09 0.03 90 1040.1
20260904142520 77 0.0 0.0 0.00 0.09 0.03 90 1040.1
20260904142035 77 0.0 0.0 0.00 0.09 0.03 90 1040.1
20260904141532 77 0.0 0.0 0.00 0.09 0.03 90 1040.0
20260904141029 77 0.0 0.0 0.00 0.09 0.03 90 1040.0
20260904140526 76 0.0 0.0 0.00 0.09 0.03 91 1040.1
20260904140024 76 0.0 0.0 0.00 0.09 0.03 91 1040.0
20260904135521 76 0.0 0.0 0.00 0.09 0.03 91 1040.0
20260904135018 76 0.0 0.0 0.00 0.09 0.03 91 1040.1
20260904134533 76 0.0 0.0 0.00 0.09 0.03 91 1040.1
20260904134051 75 0.0 0.0 0.00 0.09 0.03 91 1040.1
20260904133528 75 0.0 0.0 0.00 0.10 0.03 91 1040.2
20260904133026 75 0.0 0.0 0.00 0.10 0.03 91 1040.2
20260904132522 75 0.0 0.0 0.00 0.10 0.03 91 1040.0
20260904132020 75 0.0 0.0 0.00 0.11 0.03 91 1040.0
20260904131517 74 0.0 0.0 0.00 0.11 0.03 91 1040.1
20260904131033 74 0.0 0.0 0.00 0.12 0.03 91 1040.0
20260904130530 74 0.0 0.0 0.00 0.13 0.03 91 1040.1
20260904130027 74 0.0 0.0 0.00 0.14 0.03 91 1040.0
20260904125524 74 0.0 0.0 0.00 0.15 0.03 91 1039.8
20260904125022 74 0.0 0.0 0.03 0.15 0.03 91 1039.7
20260904124519 74 0.0 0.0 0.03 0.17 0.03 90 1039.7
20260904124035 74 164 0.0 1.0 0.03 0.17 0.03 90 1039.8
20260904123532 74 164 0.0 1.0 0.03 0.18 0.03 90 1039.7
20260904123109 74 0.0 0.0 0.03 0.19 0.03 90 1039.6
20260904122546 74 0.0 0.0 0.03 0.20 0.03 90 1039.5
20260904122023 74 164 0.0 1.0 0.03 0.20 0.03 90 1039.5
20260904121520 74 0.0 0.0 0.03 0.20 0.03 90 1039.4
20260904121016 74 0.0 0.0 0.03 0.20 0.03 90 1039.5
20260904120533 74 0.0 0.0 0.03 0.20 0.03 90 1039.4
20260904120030 74 0.0 0.0 0.03 0.20 0.03 90 1039.4
20260904115527 74 0.0 0.0 0.02 0.20 0.02 90 1039.5
20260904115044 74 0.0 0.0 0.00 0.18 0.00 90 1039.3
20260904114522 73 0.0 0.0 0.00 0.18 0.00 90 1039.3
20260904114018 73 0.0 0.0 0.00 0.19 0.00 90 1039.4
20260904113535 73 0.0 0.0 0.00 0.19 0.00 90 1039.1
20260904113052 73 0.0 0.0 0.00 0.20 0.00 90 1039.1
20260904112529 73 0.0 0.0 0.00 0.20 0.00 90 1038.9
20260904112026 73 0.0 0.0 0.00 0.22 0.00 90 1038.8
20260904111523 73 0.0 0.0 0.00 0.22 0.00 89 1039.0
20260904111020 74 0.0 0.0 0.00 0.22 0.00 89 1038.8
20260904110518 74 0.0 0.0 0.00 0.22 0.00 89 1038.8
20260904110055 74 0.0 0.0 0.00 0.22 0.00 89 1038.9
20260904105531 74 0.0 0.0 0.00 0.22 0.00 89 1038.9
20260904105029 74 0.0 0.0 0.00 0.22 0.00 89 1038.9
20260904104525 75 0.0 0.0 0.00 0.22 0.00 89 1039.0
20260904104022 75 0.0 0.0 0.00 0.22 0.00 89 1039.1
20260904103520 75 0.0 0.0 0.00 0.22 0.00 89 1039.0
20260904103016 75 0.0 0.0 0.00 0.22 0.00 89 1039.0
20260904102532 75 0.0 0.0 0.00 0.22 0.00 89 1038.9
20260904102029 76 0.0 0.0 0.00 0.22 0.00 89 1038.9
20260904101526 75 0.0 0.0 0.00 0.22 0.00 89 1038.9
20260904101024 75 0.0 0.0 0.00 0.22 0.00 89 1038.9
20260904100521 75 0.0 0.0 0.00 0.22 0.00 89 1038.9
20260904100018 75 0.0 0.0 0.00 0.22 0.00 89 1038.9
20260904095534 75 0.0 0.0 0.00 0.22 0.00 89 1038.9
20260904095031 75 0.0 0.0 0.00 0.22 0.00 89 1039.0
20260904094527 75 0.0 0.0 0.00 0.22 0.00 89 1039.0
20260904094025 75 0.0 0.0 0.00 0.22 0.00 89 1039.1
20260904093522 75 0.0 0.0 0.00 0.22 0.00 89 1039.1
20260904093019 75 0.0 0.0 0.00 0.22 0.00 89 1039.1
20260904092516 75 0.0 0.0 0.00 0.22 0.00 89 1039.0
20260904092032 75 0.0 0.0 0.00 0.22 0.00 89 1038.9
20260904091549 75 0.0 0.0 0.00 0.22 0.00 89 1039.0
20260904091026 75 0.0 0.0 0.00 0.22 0.00 88 1038.9
20260904090524 75 0.0 0.0 0.00 0.22 0.00 88 1038.9
20260904090041 75 0.0 0.0 0.00 0.22 0.00 88 1039.0
20260904085519 75 0.0 0.0 0.00 0.22 0.00 88 1038.9
20260904085056 76 0.0 0.0 0.00 0.22 0.00 88 1038.9
20260904084531 76 0.0 0.0 0.00 0.22 0.00 88 1038.9
20260904084049 76 0.0 0.0 0.00 0.22 0.00 87 1038.8
20260904083526 77 0.0 0.0 0.00 0.22 0.00 87 1038.6
20260904083043 78 0.0 0.0 0.00 0.22 0.00 88 1038.7
20260904082520 78 0.0 0.0 0.00 0.22 0.00 88 1038.5
20260904082017 78 0.0 0.0 0.00 0.22 0.00 88 1038.4
20260904081533 78 0.0 0.0 0.00 0.22 0.00 89 1038.4
20260904081030 78 0.0 0.0 0.00 0.22 0.00 89 1038.4
20260904080527 78 0.0 0.0 0.00 0.22 0.00 90 1038.5
20260904080024 78 0.0 0.0 0.00 0.22 0.00 90 1038.4
20260904075521 77 0.0 0.0 0.00 0.22 0.00 90 1038.4
20260904075018 77 0.0 0.0 0.00 0.22 0.00 90 1038.4
20260904074554 77 0.0 0.0 0.00 0.22 0.00 90 1038.4
20260904074051 77 0.0 0.0 0.00 0.22 0.00 91 1038.5
20260904073528 76 0.0 0.0 0.00 0.22 0.00 91 1038.6
20260904073025 76 0.0 0.0 0.00 0.22 0.00 91 1038.5
20260904072523 76 0.0 0.0 0.00 0.22 0.00 91 1038.6
20260904072040 76 0.0 0.0 0.00 0.22 0.00 90 1038.6
20260904071516 77 0.0 0.0 0.00 0.22 0.00 91 1038.7
20260904071032 77 0.0 0.0 0.00 0.22 0.00 91 1038.7
20260904070529 77 0.0 0.0 0.00 0.22 0.00 91 1038.7
20260904070026 76 0.0 0.0 0.00 0.22 0.00 91 1038.8
20260904065523 76 0.0 0.0 0.00 0.22 0.00 91 1038.8
20260904065020 76 0.0 0.0 0.00 0.22 0.00 91 1038.8
20260904064537 76 0.0 0.0 0.00 0.22 0.00 91 1038.9
20260904064033 76 0.0 0.0 0.00 0.22 0.00 91 1038.8
20260904063530 76 0.0 0.0 0.00 0.22 0.00 91 1038.8
20260904063027 75 0.0 0.0 0.00 0.22 0.00 91 1038.9
20260904062524 75 0.0 0.0 0.00 0.22 0.00 91 1039.1
20260904062021 75 0.0 0.0 0.00 0.22 0.00 91 1039.1
20260904061519 75 0.0 0.0 0.00 0.22 0.00 91 1039.1
20260904061035 75 0.0 0.0 0.00 0.22 0.00 91 1039.2
20260904060531 74 0.0 0.0 0.00 0.22 0.00 91 1039.2
20260904060028 74 0.0 0.0 0.00 0.22 0.00 91 1039.3
20260904055525 74 0.0 0.0 0.00 0.22 0.00 91 1039.3
20260904055022 74 0.0 0.0 0.00 0.22 0.00 91 1039.4
20260904054520 74 0.0 0.0 0.00 0.22 0.00 91 1039.5
20260904054037 74 0.0 0.0 0.00 0.22 0.00 91 1039.5
20260904053533 74 0.0 0.0 0.00 0.22 0.00 91 1039.5
20260904053030 74 0.0 0.0 0.00 0.22 0.00 91 1039.5
20260904052527 74 0.0 0.0 0.00 0.22 0.00 91 1039.5
20260904052025 74 0.0 0.0 0.00 0.22 0.00 91 1039.4
20260904051522 74 0.0 0.0 0.00 0.22 0.00 91 1039.6
20260904051019 74 0.0 0.0 0.00 0.22 0.00 91 1039.4
20260904050516 75 0.0 0.0 0.00 0.22 0.00 91 1039.5
20260904050032 75 0.0 0.0 0.00 0.22 0.22 91 1039.6
20260904045529 75 0.0 0.0 0.00 0.22 0.22 91 1039.5
20260904045046 75 0.0 0.0 0.00 0.22 0.22 91 1039.6
20260904044523 75 0.0 0.0 0.00 0.22 0.22 91 1039.7
20260904044021 75 0.0 0.0 0.00 0.22 0.22 91 1039.6
20260904043518 75 0.0 0.0 0.00 0.22 0.22 91 1039.6
20260904043034 75 0.0 0.0 0.00 0.22 0.22 91 1039.6
20260904042531 75 0.0 0.0 0.00 0.22 0.22 91 1039.7
20260904042048 75 0.0 0.0 0.00 0.22 0.22 91 1039.7
20260904041525 75 0.0 0.0 0.00 0.22 0.22 91 1039.6
20260904041022 75 0.0 0.0 0.00 0.22 0.22 90 1039.6
20260904040519 75 0.0 0.0 0.00 0.22 0.22 91 1039.6
20260904040035 75 0.0 0.0 0.00 0.22 0.22 90 1039.7
20260904035532 75 164 0.0 1.0 0.00 0.22 0.22 90 1039.7
20260904035029 75 164 0.0 1.0 0.00 0.22 0.22 90 1039.6
20260904034526 75 0.0 0.0 0.00 0.22 0.22 90 1039.7
20260904034023 74 0.0 0.0 0.00 0.22 0.22 90 1039.6
20260904033520 74 164 0.0 2.0 0.00 0.22 0.22 90 1039.5
20260904033037 74 0.0 0.0 0.00 0.22 0.22 90 1039.5
20260904032533 74 0.0 0.0 0.00 0.22 0.22 90 1039.3
20260904032030 74 0.0 0.0 0.00 0.22 0.22 90 1039.4
20260904031547 74 0.0 0.0 0.00 0.22 0.22 90 1039.5
20260904031024 74 0.0 0.0 0.00 0.22 0.22 90 1039.6
20260904030521 74 0.0 0.0 0.00 0.22 0.22 90 1039.6
20260904030038 74 0.0 0.0 0.00 0.22 0.22 90 1039.8
20260904025534 74 0.0 0.0 0.00 0.22 0.22 90 1039.8
20260904025031 74 0.0 0.0 0.00 0.22 0.22 89 1039.8
20260904024528 75 0.0 0.0 0.00 0.22 0.22 89 1039.8
20260904024025 75 0.0 0.0 0.00 0.22 0.22 89 1039.9